When you browse on this site, cookies collect data to enhance your experience and personalize the content and advertising you see.
Visit our Privacy Policy to learn more. By continuing to use the site, you agree to this use of cookies and data.
  • Em Portugal
  • Lista de países
  • Para 7 dias
  • Temperatura da água
  • Mapas de satélite
  • Mapa do tempo
  • Widgets de tempo
  • user-avatar
    Iniciar Sessão

    Previsão horária em Budziska

    Hoje, 20 Julho, Sábado

    Tempo Temperatura Precipitação Vento Pressão Humidade
    00:00 +16°C° 0 mm 1 m/s 749 mmHg 89%
    01:00 +16°C° 0 mm 1 m/s 749 mmHg 89%
    02:00 +16°C° 0 mm 1 m/s 749 mmHg 89%
    03:00 +16°C° 0 mm 1 m/s 749 mmHg 89%
    04:00 +16°C° 0 mm 1 m/s 749 mmHg 89%
    05:00 +19°C° 0 mm 1 m/s 749 mmHg 81%
    06:00 +21°C° 0 mm 1 m/s 749 mmHg 73%
    07:00 +21°C° 0 mm 0 m/s 750 mmHg 64%
    08:00 +23°C° 0 mm 0 m/s 750 mmHg 57%
    09:00 +25°C° 0 mm 0 m/s 750 mmHg 49%
    10:00 +29°C° 0 mm 1 m/s 750 mmHg 42%
    11:00 +29°C° 0 mm 1 m/s 750 mmHg 41%
    12:00 +29°C° 0 mm 1 m/s 750 mmHg 40%
    13:00 +29°C° 0 mm 2 m/s 750 mmHg 39%
    14:00 +29°C° 0 mm 2 m/s 750 mmHg 42%
    15:00 +28°C° 0 mm 2 m/s 750 mmHg 45%
    16:00 +28°C° 0 mm 2 m/s 750 mmHg 49%
    17:00 +27°C° 0 mm 2 m/s 750 mmHg 54%
    18:00 +26°C° 0 mm 2 m/s 749 mmHg 60%
    19:00 +24°C° 0 mm 2 m/s 749 mmHg 65%
    20:00 +23°C° 0 mm 1 m/s 749 mmHg 68%
    21:00 +22°C° 0 mm 1 m/s 749 mmHg 71%
    22:00 +21°C° 0 mm 1 m/s 750 mmHg 74%
    23:00 +21°C° 0 mm 1 m/s 749 mmHg 74%

    Amanhã, 21 Julho, Domingo

    Tempo Temperatura Precipitação Vento Pressão Humidade
    00:00 +19°C° 0 mm 2 m/s 749 mmHg 74%
    01:00 +19°C° 0 mm 2 m/s 749 mmHg 75%
    02:00 +19°C° 0.1 mm 2 m/s 749 mmHg 76%
    03:00 +18°C° 0.1 mm 2 m/s 749 mmHg 78%
    04:00 +18°C° 0.1 mm 2 m/s 748 mmHg 80%
    05:00 +19°C° 0.5 mm 2 m/s 748 mmHg 81%
    06:00 +19°C° 0.5 mm 3 m/s 748 mmHg 81%
    07:00 +20°C° 0.5 mm 3 m/s 748 mmHg 81%
    08:00 +22°C° 0.3 mm 3 m/s 749 mmHg 78%
    09:00 +24°C° 0.3 mm 3 m/s 749 mmHg 75%
    10:00 +25°C° 0.3 mm 3 m/s 749 mmHg 72%
    11:00 +26°C° 0.5 mm 3 m/s 749 mmHg 67%
    12:00 +27°C° 0.5 mm 4 m/s 749 mmHg 62%
    13:00 +28°C° 0.5 mm 4 m/s 749 mmHg 57%
    14:00 +27°C° 0.1 mm 4 m/s 749 mmHg 56%
    15:00 +27°C° 0.1 mm 4 m/s 750 mmHg 55%
    16:00 +27°C° 0.1 mm 4 m/s 750 mmHg 54%
    17:00 +25°C° 0.3 mm 4 m/s 750 mmHg 61%
    18:00 +23°C° 0.3 mm 4 m/s 750 mmHg 68%
    19:00 +21°C° 0.3 mm 3 m/s 750 mmHg 76%
    20:00 +20°C° 0 mm 3 m/s 751 mmHg 79%
    21:00 +19°C° 0 mm 3 m/s 751 mmHg 83%
    22:00 +18°C° 0 mm 2 m/s 752 mmHg 86%
    23:00 +17°C° 0 mm 3 m/s 752 mmHg 88%

    Depois de amanhã, 22 Julho, Segunda-feira

    Tempo Temperatura Precipitação Vento Pressão Humidade
    00:00 +17°C° 0 mm 3 m/s 752 mmHg 89%
    01:00 +15°C° 0 mm 4 m/s 752 mmHg 91%
    02:00 +17°C° 0 mm 4 m/s 752 mmHg 90%
    03:00 +17°C° 0 mm 4 m/s 752 mmHg 89%
    04:00 +17°C° 0 mm 4 m/s 752 mmHg 87%
    05:00 +18°C° 0 mm 4 m/s 753 mmHg 83%
    06:00 +18°C° 0 mm 4 m/s 753 mmHg 79%
    07:00 +17°C° 0 mm 5 m/s 753 mmHg 75%
    08:00 +20°C° 0 mm 5 m/s 753 mmHg 67%
    09:00 +21°C° 0 mm 5 m/s 754 mmHg 58%
    10:00 +22°C° 0 mm 5 m/s 754 mmHg 50%
    11:00 +23°C° 0 mm 5 m/s 754 mmHg 48%
    12:00 +23°C° 0 mm 5 m/s 754 mmHg 46%
    13:00 +25°C° 0 mm 5 m/s 754 mmHg 45%
    14:00 +25°C° 0 mm 5 m/s 754 mmHg 46%
    15:00 +23°C° 0 mm 5 m/s 754 mmHg 47%
    16:00 +23°C° 0 mm 5 m/s 754 mmHg 48%
    17:00 +22°C° 0 mm 4 m/s 754 mmHg 52%
    18:00 +21°C° 0 mm 4 m/s 754 mmHg 57%
    19:00 +20°C° 0 mm 3 m/s 754 mmHg 62%
    20:00 +19°C° 0 mm 3 m/s 754 mmHg 67%
    21:00 +18°C° 0 mm 2 m/s 754 mmHg 72%
    22:00 +16°C° 0 mm 2 m/s 754 mmHg 76%
    23:00 +17°C° 0 mm 2 m/s 754 mmHg 76%

    23 Julho, Terça-feira

    Tempo Temperatura Precipitação Vento Pressão Humidade
    00:00 +17°C° 0 mm 2 m/s 754 mmHg 77%
    01:00 +17°C° 0 mm 2 m/s 754 mmHg 77%
    02:00 +17°C° 0 mm 2 m/s 754 mmHg 77%
    03:00 +17°C° 0 mm 2 m/s 754 mmHg 78%
    04:00 +17°C° 0 mm 2 m/s 754 mmHg 79%
    05:00 +17°C° 0 mm 2 m/s 754 mmHg 80%
    06:00 +17°C° 0 mm 2 m/s 754 mmHg 80%
    07:00 +18°C° 0 mm 2 m/s 754 mmHg 81%
    08:00 +18°C° 0 mm 2 m/s 754 mmHg 80%
    09:00 +19°C° 0 mm 2 m/s 754 mmHg 80%
    10:00 +19°C° 0 mm 3 m/s 754 mmHg 80%
    11:00 +21°C° 0 mm 3 m/s 754 mmHg 75%
    12:00 +22°C° 0 mm 3 m/s 754 mmHg 70%
    13:00 +24°C° 0 mm 3 m/s 754 mmHg 65%
    14:00 +25°C° 0 mm 3 m/s 753 mmHg 64%
    15:00 +25°C° 0 mm 3 m/s 753 mmHg 63%
    16:00 +25°C° 0 mm 3 m/s 753 mmHg 61%
    17:00 +25°C° 0 mm 3 m/s 753 mmHg 65%
    18:00 +24°C° 0 mm 3 m/s 753 mmHg 68%
    19:00 +22°C° 0 mm 3 m/s 753 mmHg 71%
    20:00 +21°C° 0 mm 2 m/s 753 mmHg 77%
    21:00 +19°C° 0 mm 2 m/s 753 mmHg 84%
    22:00 +19°C° 0 mm 1 m/s 753 mmHg 90%
    23:00 +19°C° 0 mm 1 m/s 753 mmHg 92%

    24 Julho, Quarta-feira

    Tempo Temperatura Precipitação Vento Pressão Humidade
    00:00 +18°C° 0 mm 1 m/s 753 mmHg 94%
    01:00 +18°C° 0 mm 1 m/s 753 mmHg 96%
    02:00 +18°C° 0 mm 1 m/s 753 mmHg 96%
    03:00 +17°C° 0 mm 2 m/s 753 mmHg 97%
    04:00 +17°C° 0 mm 2 m/s 753 mmHg 97%
    05:00 +19°C° 0 mm 2 m/s 753 mmHg 90%
    06:00 +20°C° 0 mm 2 m/s 753 mmHg 83%
    07:00 +23°C° 0 mm 2 m/s 753 mmHg 77%
    08:00 +25°C° 0 mm 2 m/s 753 mmHg 69%
    09:00 +27°C° 0 mm 2 m/s 753 mmHg 61%
    10:00 +28°C° 0 mm 2 m/s 754 mmHg 54%
    11:00 +29°C° 0 mm 2 m/s 754 mmHg 50%
    12:00 +30°C° 0 mm 2 m/s 754 mmHg 46%
    13:00 +31°C° 0 mm 2 m/s 754 mmHg 41%
    14:00 +31°C° 0 mm 3 m/s 753 mmHg 41%
    15:00 +31°C° 0 mm 3 m/s 753 mmHg 40%
    16:00 +31°C° 0 mm 3 m/s 753 mmHg 39%
    17:00 +29°C° 0 mm 3 m/s 753 mmHg 47%
    18:00 +27°C° 0 mm 2 m/s 753 mmHg 55%
    19:00 +25°C° 0 mm 2 m/s 753 mmHg 63%
    20:00 +23°C° 0 mm 2 m/s 753 mmHg 71%
    21:00 +22°C° 0 mm 1 m/s 753 mmHg 79%
    22:00 +20°C° 0 mm 1 m/s 754 mmHg 86%
    23:00 +17°C° 0 mm 0 m/s 754 mmHg 87%

    25 Julho, Quinta-feira

    Tempo Temperatura Precipitação Vento Pressão Humidade
    00:00 +17°C° 0 mm 0 m/s 754 mmHg 88%
    01:00 +16°C° 0 mm 0 m/s 754 mmHg 89%
    02:00 +16°C° 0 mm 0 m/s 754 mmHg 89%
    03:00 +16°C° 0 mm 0 m/s 754 mmHg 89%
    04:00 +15°C° 0 mm 0 m/s 754 mmHg 88%
    05:00 +18°C° 0 mm 0 m/s 754 mmHg 78%
    06:00 +20°C° 0 mm 0 m/s 754 mmHg 68%
    07:00 +22°C° 0 mm 0 m/s 754 mmHg 58%
    08:00 +24°C° 0 mm 0 m/s 754 mmHg 50%
    09:00 +29°C° 0 mm 1 m/s 755 mmHg 43%
    10:00 +31°C° 0 mm 1 m/s 755 mmHg 36%
    11:00 +31°C° 0 mm 1 m/s 755 mmHg 35%
    12:00 +32°C° 0 mm 2 m/s 755 mmHg 34%
    13:00 +34°C° 0 mm 2 m/s 754 mmHg 33%
    14:00 +32°C° 0 mm 2 m/s 754 mmHg 34%
    15:00 +33°C° 0 mm 3 m/s 754 mmHg 36%
    16:00 +33°C° 0 mm 3 m/s 754 mmHg 38%
    17:00 +30°C° 0 mm 3 m/s 754 mmHg 46%
    18:00 +28°C° 0 mm 3 m/s 754 mmHg 54%
    19:00 +26°C° 0 mm 3 m/s 753 mmHg 62%
    20:00 +24°C° 0 mm 3 m/s 754 mmHg 69%
    21:00 +21°C° 0 mm 2 m/s 754 mmHg 76%
    22:00 +19°C° 0 mm 2 m/s 754 mmHg 83%
    23:00 +19°C° 0 mm 2 m/s 754 mmHg 86%
    Mostrar mais